BAW32L EGCC-EGLL

Flight info

Callsign BAW32L
Flight time 0h 33m
Altitude 17000
Route LISTO2S LISTO L612 HON HON1H
Aircraft A20N/M-SDE2E3FGHIJ1RWXY/LB1

Departure

Time 2026-05-05 10:31
Airport Manchester Airport (EGCC)

Arrival

Time 2026-05-05 11:04
Airport London Heathrow Airport (EGLL)
Time Latitude Longitude Altitude Speed Heading
2026-05-05 09:58 53.36439 -2.27736 245 ft 0 kts 45°
2026-05-05 10:17 53.36434 -2.27745 245 ft 1 kts 45°
2026-05-05 10:17 53.36428 -2.27755 245 ft 1 kts 45°
2026-05-05 10:17 53.36414 -2.27779 246 ft 3 kts 39°
2026-05-05 10:18 53.36391 -2.27803 246 ft 3 kts 26°
2026-05-05 10:18 53.36370 -2.27811 247 ft 3 kts 346°
2026-05-05 10:18 53.36361 -2.27807 246 ft 1 kts 326°
2026-05-05 10:18 53.36350 -2.27793 246 ft 0 kts 314°
2026-05-05 10:22 53.36353 -2.27798 246 ft 2 kts 314°
2026-05-05 10:22 53.36360 -2.27811 247 ft 1 kts 314°
2026-05-05 10:22 53.36371 -2.27829 247 ft 4 kts 314°
2026-05-05 10:23 53.36391 -2.27871 247 ft 6 kts 301°
2026-05-05 10:23 53.36389 -2.27935 248 ft 6 kts 251°
2026-05-05 10:23 53.36361 -2.27988 248 ft 7 kts 222°
2026-05-05 10:23 53.36349 -2.28007 249 ft 8 kts 222°
2026-05-05 10:24 53.36257 -2.28077 250 ft 10 kts 192°
2026-05-05 10:24 53.36195 -2.28062 250 ft 10 kts 128°
2026-05-05 10:24 53.36138 -2.27967 249 ft 13 kts 138°
2026-05-05 10:24 53.36064 -2.27849 249 ft 16 kts 142°
2026-05-05 10:25 53.35950 -2.27839 249 ft 17 kts 191°
2026-05-05 10:25 53.35826 -2.27858 250 ft 19 kts 184°
2026-05-05 10:25 53.35689 -2.27882 250 ft 21 kts 186°
2026-05-05 10:25 53.35541 -2.27910 251 ft 22 kts 187°
2026-05-05 10:26 53.35421 -2.27990 251 ft 10 kts 238°
2026-05-05 10:26 53.35412 -2.28006 252 ft 2 kts 225°
2026-05-05 10:26 53.35394 -2.28034 252 ft 5 kts 221°
2026-05-05 10:26 53.35364 -2.28078 252 ft 7 kts 221°
2026-05-05 10:27 53.35321 -2.28141 253 ft 9 kts 221°
2026-05-05 10:27 53.35271 -2.28221 254 ft 11 kts 227°
2026-05-05 10:27 53.35219 -2.28323 255 ft 12 kts 230°
2026-05-05 10:27 53.35163 -2.28442 256 ft 13 kts 232°
2026-05-05 10:28 53.35103 -2.28569 258 ft 14 kts 232°
2026-05-05 10:28 53.35040 -2.28703 259 ft 15 kts 231°
2026-05-05 10:28 53.34962 -2.28832 261 ft 16 kts 227°
2026-05-05 10:28 53.34884 -2.28973 263 ft 17 kts 227°
2026-05-05 10:29 53.34788 -2.29071 265 ft 17 kts 199°
2026-05-05 10:29 53.34693 -2.29033 266 ft 14 kts 143°
2026-05-05 10:29 53.34672 -2.28957 266 ft 10 kts 65°
2026-05-05 10:29 53.34696 -2.28896 265 ft 0 kts 50°
2026-05-05 10:30 53.34744 -2.28799 265 ft 43 kts 50°
2026-05-05 10:30 53.35124 -2.28015 253 ft 127 kts 51°
2026-05-05 10:31 53.35785 -2.26614 475 ft 168 kts 50°
2026-05-05 10:31 53.36518 -2.24999 1303 ft 174 kts 50°
2026-05-05 10:31 53.37282 -2.23383 2239 ft 182 kts 50°
2026-05-05 10:31 53.37705 -2.22105 2659 ft 198 kts 72°
2026-05-05 10:32 53.37475 -2.18993 3792 ft 213 kts 121°
2026-05-05 10:32 53.36343 -2.17285 4581 ft 232 kts 153°
2026-05-05 10:32 53.35307 -2.16725 4827 ft 245 kts 170°
2026-05-05 10:32 53.32877 -2.16670 4998 ft 272 kts 186°
2026-05-05 10:33 53.30994 -2.17038 4999 ft 277 kts 188°
2026-05-05 10:33 53.29082 -2.17461 5009 ft 277 kts 188°
2026-05-05 10:33 53.27802 -2.17727 4997 ft 273 kts 187°
2026-05-05 10:33 53.26550 -2.17967 5004 ft 276 kts 186°
2026-05-05 10:34 53.23996 -2.18411 4994 ft 273 kts 186°
2026-05-05 10:34 53.21487 -2.18813 5007 ft 278 kts 186°
2026-05-05 10:34 53.19543 -2.19117 5310 ft 281 kts 186°
2026-05-05 10:34 53.18248 -2.19317 5887 ft 283 kts 186°
2026-05-05 10:35 53.16312 -2.19614 7068 ft 276 kts 186°
2026-05-05 10:35 53.14374 -2.19585 8024 ft 282 kts 172°
2026-05-05 10:35 53.13722 -2.19379 8354 ft 283 kts 167°
2026-05-05 10:35 53.10612 -2.17358 9818 ft 296 kts 158°
2026-05-05 10:36 53.08688 -2.15998 10528 ft 308 kts 159°
2026-05-05 10:36 53.06636 -2.14569 10858 ft 332 kts 159°
2026-05-05 10:36 53.04453 -2.13061 11370 ft 345 kts 159°
2026-05-05 10:36 53.03703 -2.12542 11615 ft 347 kts 159°
2026-05-05 10:37 52.99948 -2.09949 12969 ft 355 kts 159°
2026-05-05 10:37 52.97657 -2.08372 13878 ft 356 kts 159°
2026-05-05 10:37 52.95382 -2.06806 14657 ft 358 kts 159°
2026-05-05 10:37 52.93064 -2.05210 15376 ft 362 kts 159°
2026-05-05 10:38 52.90727 -2.03606 16151 ft 364 kts 159°
2026-05-05 10:38 52.88393 -2.02009 16742 ft 369 kts 160°
2026-05-05 10:38 52.86008 -2.00375 16961 ft 372 kts 160°
2026-05-05 10:38 52.83617 -1.98740 17018 ft 372 kts 160°
2026-05-05 10:39 52.81225 -1.97107 17021 ft 371 kts 160°
2026-05-05 10:39 52.78838 -1.95479 17020 ft 371 kts 160°
2026-05-05 10:39 52.76450 -1.93852 17020 ft 371 kts 160°
2026-05-05 10:39 52.74063 -1.92230 17013 ft 371 kts 159°
2026-05-05 10:40 52.71675 -1.90609 17017 ft 370 kts 160°
2026-05-05 10:40 52.69291 -1.88992 17017 ft 370 kts 160°
2026-05-05 10:40 52.66902 -1.87372 17019 ft 370 kts 159°
2026-05-05 10:40 52.65040 -1.86112 17019 ft 370 kts 159°
2026-05-05 10:41 52.62656 -1.84499 17019 ft 370 kts 159°
2026-05-05 10:41 52.60275 -1.82890 17019 ft 370 kts 160°
2026-05-05 10:41 52.57895 -1.81283 17019 ft 370 kts 159°
2026-05-05 10:41 52.55509 -1.79674 17020 ft 370 kts 160°
2026-05-05 10:42 52.50744 -1.76470 17016 ft 370 kts 159°
2026-05-05 10:42 52.48361 -1.74868 17020 ft 368 kts 160°
2026-05-05 10:42 52.45986 -1.73277 17022 ft 369 kts 159°
2026-05-05 10:43 52.43639 -1.71703 17021 ft 368 kts 160°
2026-05-05 10:43 52.41264 -1.70113 17019 ft 368 kts 160°
2026-05-05 10:43 52.38887 -1.68525 17020 ft 369 kts 159°
2026-05-05 10:43 52.36550 -1.66779 17020 ft 370 kts 153°
2026-05-05 10:44 52.34376 -1.64514 17018 ft 372 kts 144°
2026-05-05 10:44 52.32389 -1.61802 17015 ft 373 kts 140°
2026-05-05 10:44 52.30435 -1.59016 16997 ft 373 kts 141°
2026-05-05 10:44 52.28477 -1.56239 16994 ft 373 kts 141°
2026-05-05 10:45 52.26513 -1.53472 16991 ft 372 kts 141°
2026-05-05 10:45 52.24554 -1.50722 16993 ft 370 kts 140°
2026-05-05 10:45 52.22608 -1.47990 16856 ft 369 kts 141°
2026-05-05 10:45 52.20664 -1.45265 16460 ft 368 kts 140°
2026-05-05 10:46 52.18727 -1.42557 15941 ft 366 kts 140°
2026-05-05 10:46 52.16818 -1.39888 15369 ft 365 kts 140°
2026-05-05 10:46 52.14900 -1.37210 15087 ft 362 kts 140°
2026-05-05 10:46 52.12971 -1.34518 15005 ft 368 kts 140°
2026-05-05 10:47 52.11041 -1.31831 14993 ft 363 kts 140°
2026-05-05 10:47 52.09104 -1.29134 14992 ft 365 kts 140°
2026-05-05 10:47 52.07174 -1.26452 14992 ft 364 kts 140°
2026-05-05 10:47 52.05245 -1.23773 14991 ft 364 kts 140°
2026-05-05 10:48 52.03319 -1.21103 14989 ft 363 kts 139°
2026-05-05 10:48 52.01397 -1.18442 14989 ft 362 kts 139°
2026-05-05 10:48 51.99484 -1.15796 14968 ft 360 kts 139°
2026-05-05 10:48 51.97626 -1.13228 14902 ft 351 kts 139°
2026-05-05 10:49 51.95795 -1.10700 14797 ft 339 kts 139°
2026-05-05 10:49 51.94030 -1.08266 14677 ft 327 kts 139°
2026-05-05 10:49 51.92326 -1.05920 14560 ft 315 kts 139°
2026-05-05 10:49 51.90689 -1.03667 14447 ft 303 kts 139°
2026-05-05 10:50 51.89114 -1.01503 14344 ft 291 kts 139°
2026-05-05 10:50 51.87601 -0.99425 14235 ft 279 kts 139°
2026-05-05 10:50 51.86149 -0.97396 13961 ft 275 kts 134°
2026-05-05 10:50 51.84944 -0.95009 13621 ft 272 kts 121°
2026-05-05 10:51 51.84073 -0.92307 13218 ft 270 kts 115°
2026-05-05 10:51 51.83256 -0.89578 12856 ft 269 kts 115°
2026-05-05 10:51 51.82443 -0.86904 12490 ft 268 kts 115°
2026-05-05 10:51 51.81621 -0.84213 12139 ft 267 kts 115°
2026-05-05 10:52 51.80787 -0.81495 11573 ft 274 kts 115°
2026-05-05 10:52 51.79928 -0.78696 10997 ft 282 kts 115°
2026-05-05 10:52 51.79042 -0.75806 10367 ft 291 kts 115°
2026-05-05 10:52 51.78148 -0.72898 10082 ft 286 kts 115°
2026-05-05 10:53 51.77256 -0.70002 9528 ft 291 kts 115°
2026-05-05 10:53 51.76348 -0.67054 8906 ft 297 kts 115°
2026-05-05 10:53 51.75419 -0.64042 8321 ft 301 kts 115°
2026-05-05 10:53 51.74504 -0.61080 8068 ft 293 kts 115°
2026-05-05 10:54 51.73606 -0.58198 7994 ft 279 kts 118°
2026-05-05 10:54 51.72519 -0.55730 7988 ft 262 kts 124°
2026-05-05 10:54 51.71424 -0.53509 7981 ft 247 kts 141°
2026-05-05 10:54 51.69882 -0.52344 7987 ft 250 kts 171°
2026-05-05 10:55 51.68158 -0.52546 7876 ft 251 kts 200°
2026-05-05 10:55 51.66721 -0.54074 7622 ft 248 kts 228°
2026-05-05 10:55 51.65600 -0.56196 7260 ft 250 kts 231°
2026-05-05 10:55 51.64495 -0.58362 6947 ft 249 kts 231°
2026-05-05 10:56 51.63404 -0.60513 6679 ft 249 kts 231°
2026-05-05 10:56 51.62311 -0.62682 6346 ft 250 kts 231°
2026-05-05 10:56 51.61235 -0.64820 6179 ft 242 kts 231°
2026-05-05 10:56 51.60204 -0.66874 6092 ft 230 kts 231°
2026-05-05 10:57 51.59219 -0.68834 5980 ft 222 kts 231°
2026-05-05 10:57 51.58264 -0.70737 5718 ft 220 kts 231°
2026-05-05 10:57 51.57340 -0.72578 5612 ft 208 kts 231°
2026-05-05 10:57 51.56445 -0.74362 5293 ft 205 kts 231°
2026-05-05 10:58 51.55548 -0.76153 4964 ft 205 kts 230°
2026-05-05 10:58 51.54660 -0.77936 4700 ft 202 kts 231°
2026-05-05 10:58 51.53735 -0.79640 4338 ft 204 kts 217°
2026-05-05 10:58 51.52451 -0.80444 4009 ft 199 kts 183°
2026-05-05 10:59 51.51044 -0.80611 3535 ft 206 kts 181°
2026-05-05 10:59 51.49675 -0.80612 3380 ft 193 kts 166°
2026-05-05 10:59 51.48497 -0.79617 3299 ft 192 kts 129°
2026-05-05 10:59 51.47864 -0.77841 3227 ft 184 kts 103°
2026-05-05 11:00 51.47632 -0.75852 3141 ft 180 kts 90°
2026-05-05 11:00 51.47581 -0.73855 3058 ft 179 kts 86°
2026-05-05 11:00 51.47582 -0.71866 2911 ft 176 kts 85°
2026-05-05 11:00 51.47592 -0.69935 2723 ft 168 kts 85°
2026-05-05 11:01 51.47604 -0.68114 2516 ft 162 kts 85°
2026-05-05 11:01 51.47615 -0.66292 2303 ft 162 kts 84°
2026-05-05 11:01 51.47627 -0.64501 2090 ft 162 kts 85°
2026-05-05 11:01 51.47638 -0.62725 1863 ft 156 kts 84°
2026-05-05 11:02 51.47649 -0.60935 1640 ft 165 kts 86°
2026-05-05 11:02 51.47660 -0.59051 1206 ft 171 kts 86°
2026-05-05 11:02 51.47672 -0.57214 983 ft 155 kts 85°
2026-05-05 11:02 51.47689 -0.55465 926 ft 164 kts 85°
2026-05-05 11:03 51.47697 -0.53696 740 ft 154 kts 85°
2026-05-05 11:03 51.47708 -0.51999 531 ft 146 kts 85°
2026-05-05 11:03 51.47717 -0.50457 356 ft 136 kts 86°
2026-05-05 11:03 51.47729 -0.49026 187 ft 129 kts 85°
2026-05-05 11:04 51.47751 -0.47618 84 ft 121 kts 85°
2026-05-05 11:04 51.47761 -0.46786 90 ft 51 kts 87°
2026-05-05 11:04 51.47758 -0.46306 89 ft 18 kts 94°
2026-05-05 11:04 51.47701 -0.46157 88 ft 15 kts 128°
2026-05-05 11:05 51.47681 -0.46125 89 ft 2 kts 137°
2026-05-05 11:05 51.47661 -0.46095 89 ft 6 kts 136°
2026-05-05 11:05 51.47620 -0.46069 89 ft 8 kts 175°
2026-05-05 11:05 51.47596 -0.46074 90 ft 0 kts 214°
2026-05-05 11:06 51.47595 -0.46077 90 ft 1 kts 223°
2026-05-05 11:06 51.47594 -0.46085 90 ft 0 kts 262°
2026-05-05 11:06 51.47593 -0.46109 88 ft 4 kts 264°
2026-05-05 11:06 51.47593 -0.46134 87 ft 0 kts 272°
2026-05-05 11:07 51.47593 -0.46156 87 ft 4 kts 272°
2026-05-05 11:07 51.47595 -0.46221 90 ft 8 kts 273°
2026-05-05 11:07 51.47592 -0.46300 87 ft 8 kts 266°
2026-05-05 11:07 51.47589 -0.46417 86 ft 13 kts 268°
2026-05-05 11:08 51.47588 -0.46575 89 ft 15 kts 280°
2026-05-05 11:08 51.47590 -0.46709 86 ft 9 kts 283°
2026-05-05 11:08 51.47591 -0.46819 86 ft 11 kts 276°
2026-05-05 11:08 51.47583 -0.46952 88 ft 13 kts 263°
2026-05-05 11:09 51.47579 -0.47117 87 ft 16 kts 270°
2026-05-05 11:09 51.47582 -0.47286 90 ft 13 kts 272°
2026-05-05 11:09 51.47584 -0.47390 89 ft 15 kts 272°
2026-05-05 11:09 51.47584 -0.47562 89 ft 17 kts 269°
2026-05-05 11:10 51.47584 -0.47762 88 ft 20 kts 270°
2026-05-05 11:10 51.47579 -0.47994 88 ft 22 kts 270°
2026-05-05 11:10 51.47581 -0.48224 88 ft 18 kts 270°
2026-05-05 11:10 51.47575 -0.48435 86 ft 17 kts 261°
2026-05-05 11:11 51.47525 -0.48474 87 ft 8 kts 179°
2026-05-05 11:11 51.47484 -0.48532 89 ft 8 kts 246°
2026-05-05 11:11 51.47488 -0.48624 86 ft 10 kts 275°
2026-05-05 11:11 51.47486 -0.48753 89 ft 13 kts 269°
2026-05-05 11:12 51.47495 -0.48909 89 ft 14 kts 282°
2026-05-05 11:12 51.47464 -0.48955 86 ft 3 kts 165°
2026-05-05 11:12 51.47434 -0.48952 86 ft 6 kts 181°
2026-05-05 11:12 51.47416 -0.48953 89 ft 0 kts 180°